[[{"header":{"parameterUnit":"m.s-1","parameterCategory":1,"la1":30.2991,"la2":30.254,"lo1":-89.0895,"lo2":-89.0444,"dy":0.0017,"dx":0.0017,"nx":28,"ny":28,"refTime":"2024-05-28T09:00:00:Z","depth":0,"parameterNumber":2,"parameterNumberName":"U-component_of_WINDS"},"data":[0,0,0,0,0,0,0,0,0,0,0,0,0,0,0,0,0,0,0,0,0,0,0,0,0,0,0,0,0,0,0,0,0,0,0,0,0,0,0,0,0,0,0,0,0,0,0,0,0,0,0,0,0,0,0,0,0,0,0.6051,0.6052,0,0.6163,0.6165,0.6166,0.6213,0.6213,0.6213,0.6213,0.6328,0.6331,0.6334,0,0,0,0,0,0,0,0,0,0,0,0,0,0.5875,0.5878,0.6051,0.6052,0.6054,0.6163,0.6165,0.6166,0.6213,0.6213,0.6213,0.6213,0.6327,0.633,0.6334,0,0,0,0,0,0,0,0,0,0,0,0,0,0.5966,0.5879,0.6051,0.609,0.6095,0.6163,0.6165,0.6167,0.6213,0.6213,0.6213,0.6212,0.6325,0.633,0.6335,0.6372,0,0,0.635,0.6352,0,0,0,0,0,0,0,0,0.5961,0.5972,0.6083,0.6088,0.6093,0.6174,0.6145,0.6235,0.6213,0.6168,0.6213,0.6212,0.6277,0.6286,0.6307,0.6377,0.6382,0.635,0.6353,0.6355,0.6357,0,0,0,0,0,0,0,0.5955,0.5968,0.6095,0.6085,0.6091,0.6102,0.6115,0.6163,0.6223,0.6172,0.6176,0.6189,0.6279,0.6303,0.631,0.6384,0.635,0.6354,0.6357,0.6359,0.6489,0.6489,0,0,0,0,0,0,0.5942,0.5962,0.6092,0.6099,0.6025,0.6106,0.612,0.6148,0.6223,0.6234,0.6189,0.619,0.6294,0.6305,0.6315,0.6363,0.6355,0.636,0.6363,0.6488,0.6489,0.6489,0,0,0,0,0,0,0.5938,0.5953,0.6087,0.6032,0.605,0.6109,0.6141,0.6151,0.6174,0.6235,0.6246,0.6202,0.6295,0.6308,0.6357,0.6367,0.6362,0.6366,0.6488,0.6488,0.6489,0.6458,0,0,0,0,0,0,0.5933,0.5951,0.5966,0.6032,0.6052,0.6128,0.6141,0.6153,0.6182,0.6186,0.625,0.626,0.6295,0.6349,0.6362,0.6374,0.637,0.6487,0.6488,0.6489,0.6459,0.6458,0.6457,0,0,0,0,0,0.5926,0.5953,0.5967,0.5982,0.6072,0.6128,0.614,0.618,0.6183,0.6198,0.6237,0.6258,0.6364,0.6354,0.6369,0.6382,0.6486,0.6488,0.6489,0.6459,0.6458,0.6457,0,0,0,0,0,0,0.5887,0.5962,0.5978,0.6027,0.6071,0.6136,0.6157,0.6178,0.6222,0.6223,0.627,0.6285,0.633,0.6361,0.6349,0.6421,0.6427,0.6431,0.6399,0.6399,0.6398,0.639,0.6374,0,0,0,0,0,0.5884,0.5923,0.5987,0.6024,0.6045,0.6097,0.6123,0.615,0.6197,0.6216,0.6259,0.6304,0.6347,0.6375,0.6418,0.6463,0.6478,0.648,0.6479,0.6478,0.6481,0.6507,0.6508,0.6493,0.6493,0.6493,0,0,0.5878,0.5924,0.5946,0.6017,0.6054,0.6094,0.6112,0.6153,0.6183,0.6222,0.6271,0.6304,0.6358,0.6405,0.6428,0.6432,0.6488,0.6479,0.6478,0.6482,0.6508,0.651,0.6511,0.6494,0.6494,0.6493,0,0,0.5887,0.5926,0.5961,0.5998,0.6054,0.6088,0.6097,0.6159,0.6182,0.6232,0.6262,0.6298,0.6372,0.6409,0.6437,0.646,0.6481,0.6473,0.6469,0.6494,0.6495,0.6496,0.6504,0.6507,0.6475,0.6475,0.6475,0,0.5873,0.5934,0.5976,0.6016,0.6046,0.6083,0.6118,0.6152,0.6219,0.6239,0.6243,0.6336,0.6375,0.6431,0.6437,0.6459,0.6469,0.6466,0.6491,0.6493,0.6495,0.6503,0.6506,0.6474,0.6474,0.6474,0.6475,0,0.5913,0.5955,0.5977,0.6041,0.6073,0.611,0.6158,0.6186,0.621,0.6243,0.6293,0.6341,0.6394,0.641,0.6434,0.6469,0.647,0.6482,0.6489,0.6494,0.6503,0.6506,0.6472,0.6473,0.6473,0.6473,0,0,0.5902,0.5988,0.5995,0.6025,0.6089,0.6122,0.6161,0.6213,0.6236,0.6281,0.6314,0.6376,0.6387,0.6419,0.6448,0.6469,0.6484,0.6479,0.6481,0.6478,0.6526,0.6517,0.652,0.6498,0.6499,0.65,0.6522,0,0.592,0.5991,0.603,0.6084,0.6123,0.6159,0.6193,0.6236,0.6268,0.6306,0.6341,0.6384,0.6396,0.6415,0.6438,0.6477,0.6494,0.6476,0.653,0.6531,0.6515,0.6524,0.6515,0.6533,0.6525,0.6526,0.6526,0,0.5951,0.5995,0.6053,0.6113,0.6131,0.6161,0.6211,0.6247,0.6296,0.6318,0.6354,0.6382,0.6424,0.6427,0.6485,0.6472,0.6496,0.6518,0.652,0.6527,0.6529,0.6531,0.654,0.6543,0.6532,0.6532,0.6531,0,0.5936,0.601,0.6055,0.6079,0.615,0.6169,0.62,0.6249,0.6278,0.6322,0.6341,0.639,0.6416,0.6453,0.6494,0.6492,0.6548,0.6555,0.6567,0.6566,0.6578,0.6576,0.6591,0.6593,0.6593,0.6593,0.6593,0,0.5952,0.5986,0.6049,0.6076,0.6116,0.616,0.6198,0.6231,0.6274,0.6308,0.6342,0.6373,0.6425,0.6462,0.6494,0.6537,0.6549,0.6568,0.6576,0.6565,0.6563,0.6582,0.6581,0.6594,0.6593,0.6593,0.6593,0,0.5942,0.5986,0.6037,0.6099,0.6116,0.6142,0.6196,0.6223,0.6257,0.63,0.6313,0.6366,0.6412,0.6456,0.6518,0.6539,0.6583,0.6593,0.6566,0.657,0.6581,0.6579,0.6608,0.6614,0.6611,0.6611,0.6611,0,0.595,0.5977,0.6042,0.6068,0.6097,0.6138,0.6168,0.6212,0.6241,0.6299,0.632,0.6368,0.641,0.6482,0.6526,0.6573,0.6585,0.6592,0.6593,0.6581,0.6585,0.6583,0.6586,0.6591,0.6591,0.6591,0.659,0,0.5958,0.5978,0.602,0.6068,0.6103,0.6143,0.6185,0.6204,0.6256,0.6287,0.6335,0.6367,0.643,0.6477,0.653,0.6561,0.6584,0.659,0.6595,0.6584,0.6568,0.6577,0.6563,0.6589,0.6589,0.6589,0.6589,0.6589,0.5957,0.5983,0.6033,0.6078,0.6114,0.6152,0.6181,0.6219,0.6259,0.6314,0.6337,0.6385,0.6434,0.6506,0.6537,0.6576,0.6581,0.6589,0.6591,0.6592,0.659,0.6561,0.6585,0.6585,0.6586,0.6586,0.6586,0,0.5967,0.6001,0.6042,0.6099,0.6134,0.6153,0.62,0.6229,0.627,0.6314,0.6353,0.6408,0.6454,0.6502,0.6551,0.6572,0.6584,0.6584,0.6583,0.659,0.6582,0.6573,0.6573,0.6573,0.6573,0.6573,0.6573,0.6573,0.5977,0.6021,0.6047,0.611,0.6143,0.6191,0.6216,0.6251,0.6286,0.6345,0.6384,0.6415,0.646,0.6512,0.6556,0.6569,0.6585,0.6581,0.6597,0.6589,0.659,0.6591,0.6582,0.6585,0.6585,0.6601,0.6602,0.6602]},{"header":{"parameterUnit":"m.s-1","parameterCategory":1,"la1":30.2991,"la2":30.254,"lo1":-89.0895,"lo2":-89.0444,"dy":0.0017,"dx":0.0017,"nx":28,"ny":28,"refTime":"2024-05-28T09:00:00:Z","depth":0,"parameterNumber":3,"parameterNumberName":"V-component_of_WINDS"},"data":[0,0,0,0,0,0,0,0,0,0,0,0,0,0,0,0,0,0,0,0,0,0,0,0,0,0,0,0,0,0,0,0,0,0,0,0,0,0,0,0,0,0,0,0,0,0,0,0,0,0,0,0,0,0,0,0,0,0,1.9745,1.9745,0,1.966,1.9659,1.9658,1.9583,1.9582,1.9582,1.9581,1.9488,1.9486,1.9485,0,0,0,0,0,0,0,0,0,0,0,0,0,1.9839,1.9838,1.9746,1.9744,1.9743,1.966,1.9659,1.9658,1.9583,1.9582,1.9581,1.958,1.9489,1.9487,1.9485,0,0,0,0,0,0,0,0,0,0,0,0,0,1.9781,1.9837,1.9746,1.9696,1.9691,1.966,1.9659,1.9658,1.9584,1.9582,1.9581,1.958,1.9489,1.9487,1.9484,1.9494,0,0,1.9477,1.9475,0,0,0,0,0,0,0,0,1.9784,1.9777,1.9705,1.97,1.9694,1.9631,1.9658,1.9602,1.9584,1.9624,1.9581,1.9579,1.9536,1.953,1.9516,1.949,1.9486,1.9476,1.9475,1.9474,1.9473,0,0,0,0,0,0,0,1.9788,1.978,1.9711,1.9704,1.9697,1.9677,1.9667,1.9647,1.9588,1.9621,1.9615,1.9606,1.9533,1.9519,1.9514,1.9484,1.9476,1.9474,1.9473,1.9472,1.946,1.9461,0,0,0,0,0,0,1.9801,1.9784,1.9714,1.9709,1.9737,1.9676,1.9665,1.9652,1.9588,1.9577,1.9607,1.9603,1.9524,1.9517,1.951,1.9516,1.9474,1.9471,1.947,1.9458,1.946,1.9461,0,0,0,0,0,0,1.9803,1.9795,1.9718,1.9745,1.9734,1.9676,1.9662,1.9651,1.9637,1.9578,1.9567,1.9604,1.9523,1.9514,1.9499,1.9512,1.947,1.9468,1.9457,1.9459,1.9461,1.953,0,0,0,0,0,0,1.9806,1.9796,1.9801,1.9746,1.9733,1.971,1.9663,1.9651,1.9634,1.9627,1.9572,1.9562,1.9521,1.9503,1.9496,1.9508,1.9466,1.9455,1.9458,1.946,1.9526,1.9534,1.9541,0,0,0,0,0,1.9809,1.9823,1.9801,1.9793,1.9737,1.9711,1.9703,1.9657,1.9635,1.9638,1.96,1.9564,1.9512,1.9502,1.9494,1.9505,1.9454,1.9457,1.946,1.9523,1.9532,1.954,0,0,0,0,0,0,1.9879,1.9814,1.979,1.9786,1.9755,1.9698,1.97,1.9668,1.9641,1.9636,1.9578,1.9566,1.9557,1.9529,1.9519,1.951,1.9478,1.9479,1.9529,1.9537,1.9545,1.9551,1.9464,0,0,0,0,0,1.9894,1.9879,1.9823,1.9825,1.9811,1.9759,1.9745,1.9713,1.9677,1.9663,1.9623,1.9589,1.9564,1.9549,1.9524,1.9522,1.9508,1.9525,1.9533,1.9539,1.954,1.9536,1.9543,1.947,1.947,1.947,0,0,1.9924,1.9887,1.9881,1.9838,1.981,1.9794,1.9748,1.9733,1.9721,1.966,1.9644,1.9614,1.9571,1.9562,1.9557,1.9539,1.9558,1.9542,1.9548,1.9546,1.954,1.9547,1.9553,1.9472,1.9472,1.9471,0,0,1.9972,1.9943,1.9941,1.9914,1.9873,1.9838,1.9838,1.9786,1.9764,1.9747,1.9701,1.9684,1.9644,1.9615,1.9595,1.9632,1.9597,1.9625,1.9663,1.9659,1.9665,1.967,1.9682,1.9687,1.9627,1.9627,1.9627,0,2.0014,1.9991,1.9944,1.9933,1.9914,1.986,1.9857,1.9832,1.9784,1.9772,1.9753,1.9701,1.9669,1.9652,1.9662,1.9647,1.9644,1.9631,1.9668,1.9673,1.9676,1.9687,1.9692,1.9631,1.9631,1.963,1.963,0,2.0045,2.0029,2.0033,1.9989,1.9971,1.9964,1.9914,1.9901,1.9871,1.9837,1.982,1.9779,1.9744,1.9738,1.9707,1.9717,1.9707,1.968,1.9646,1.9688,1.9697,1.9701,1.9636,1.9635,1.9634,1.9633,0,0,2.0133,2.0064,2.0066,2.0045,1.9996,1.9982,1.9971,1.9939,1.9929,1.9897,1.9886,1.9853,1.9827,1.9805,1.977,1.9767,1.9798,1.9739,1.9737,1.9751,1.9805,1.9826,1.9832,1.9775,1.9775,1.9776,1.9808,0,2.0172,2.0152,2.0109,2.0103,2.0087,2.0035,2.0026,1.9994,1.9962,1.9943,1.9907,1.9885,1.9853,1.9839,1.9834,1.9795,1.9808,1.9792,1.9762,1.9761,1.9774,1.9837,1.9859,1.9891,1.9812,1.9812,1.9813,0,2.0214,2.0187,2.018,2.0131,2.0122,2.0115,2.0082,2.0064,2.0026,2.0003,1.9979,1.9941,1.9925,1.9895,1.9872,1.9863,1.9848,1.9827,1.9827,1.9822,1.9789,1.9832,1.9901,1.9906,1.9818,1.9818,1.9817,0,2.0278,2.024,2.023,2.0214,2.0157,2.0153,2.0129,2.0089,2.0072,2.0042,2.0031,1.9999,1.9981,1.9957,1.991,1.9893,1.9892,1.9858,1.9871,1.9873,1.9873,1.9873,1.9939,1.9865,1.9865,1.9865,1.9864,0,2.0325,2.0322,2.0258,2.0252,2.0247,2.0197,2.0193,2.0163,2.0129,2.0114,2.0067,2.0055,1.9995,1.9975,1.9939,1.9925,1.9917,1.9897,1.9887,1.9901,1.9903,1.9889,1.9886,1.9866,1.9866,1.9865,1.9865,0,2.0396,2.0353,2.0339,2.0286,2.0273,2.0271,2.0225,2.0216,2.0183,2.0165,2.0158,2.0105,2.0079,2.0031,1.999,1.9966,1.9959,1.9943,1.9973,1.9967,1.9982,1.9981,2.0041,2.0045,1.9969,1.997,1.9971,0,2.0428,2.0425,2.0373,2.0361,2.0339,2.032,2.0303,2.0254,2.0238,2.0194,2.019,2.0161,2.0135,2.0095,2.0051,2.002,2.0002,2.0025,1.9996,2.001,2.0001,2.0001,2.0,2.0031,2.0032,2.0033,2.0034,0,2.049,2.047,2.0448,2.0419,2.04,2.0375,2.0346,2.0339,2.0282,2.0266,2.024,2.022,2.018,2.0151,2.0113,2.0086,2.005,2.0043,2.0044,2.0058,2.0075,2.0065,1.9989,2.0042,2.0041,2.004,2.004,2.004,2.0542,2.0537,2.0499,2.0476,2.045,2.0425,2.0414,2.038,2.0358,2.0322,2.0294,2.027,2.023,2.0177,2.0151,2.013,2.0114,2.0115,2.0116,2.0117,2.0122,2.008,2.0123,2.0123,2.0123,2.0123,2.0122,0,2.0601,2.0575,2.0554,2.0517,2.0499,2.0469,2.0436,2.0422,2.0402,2.0369,2.0345,2.0314,2.0286,2.024,2.0208,2.02,2.0182,2.0193,2.0192,2.0186,2.0139,2.0141,2.0207,2.0207,2.0207,2.0207,2.0207,2.0207,2.0629,2.0619,2.0593,2.0569,2.0541,2.0519,2.0503,2.0478,2.0452,2.0421,2.0398,2.0369,2.033,2.0295,2.0267,2.0254,2.0243,2.0259,2.0241,2.0198,2.019,2.0182,2.0184,2.0257,2.0257,2.0289,2.0289,2.029]}]]